Tracking 34794 objects as of 19-Jul-2026
HD Live streaming from Space Station
objects crossing your sky now

STARLINK-32429

Track STARLINK-32429 now!
10-day predictions
STARLINK-32429 is classified as:


NORAD ID: 61682
Int'l Code: 2024-193X
Perigee: 477.1 km
Apogee: 478.7 km
Inclination: 53.2 °
Period: 94.0 minutes
Semi major axis: 6848 km
RCS: Unknown
Launch date: October 26, 2024
Source: United States (US)
Launch site: AIR FORCE EASTERN TEST RANGE (AFETR)
Your satellite tracking list
Your tracking list is empty




NASA's NSSDC Master Catalog

Two Line Element Set (TLE):
1 61682U 24193X   26199.45486739 -.00000123  00000-0  78072-5 0  9991
2 61682  53.1594 203.1628 0001206  86.3033 273.8106 15.31698370 96551
Source of the keplerian elements: AFSPC